G6FJI-13 Weather Reports


Display with metric or nautical units.
time (UTC)temp
F
wind
direction
speed
MPH
gust
MPH
rain 1hr
in
rain 24hr
in
rain mn
in
humidity
%
barometer
mb
20260502130741 67 316 1.0 2.0 0.00 0.00 0.00 56 1017.8
20260502123730 68 291 1.0 3.0 0.00 0.00 0.00 53 1018.0
20260502122720 69 169 1.0 2.0 0.00 0.00 0.00 49 1018.2
20260502121714 68 219 1.0 3.0 0.00 0.00 0.00 51 1018.2
20260502120640 68 287 2.0 5.0 0.00 0.00 0.00 52 1018.6
20260502115712 68 283 1.0 1.0 0.00 0.00 0.00 52 1018.7
20260502114641 66 0.0 3.0 0.00 0.00 0.00 58 1019.0
20260502113713 65 313 1.0 2.0 0.00 0.00 0.00 56 1018.7
20260502112642 66 317 3.0 5.0 0.00 0.00 0.00 56 1018.7
20260502111714 66 321 1.0 5.0 0.00 0.00 0.00 55 1018.9
20260502110642 69 250 0.0 1.0 0.00 0.00 0.00 50 1019.4
20260502105715 66 0.0 0.0 0.00 0.00 0.00 58 1019.4
20260502104643 65 296 1.0 3.0 0.00 0.00 0.00 57 1019.7
20260502103718 66 0.0 0.0 0.00 0.00 0.00 57 1019.7
20260502102705 66 68 1.0 5.0 0.00 0.00 0.00 58 1019.9
20260502101718 64 0.0 3.0 0.00 0.00 0.00 64 1019.8
20260502100646 63 0.0 1.0 0.00 0.00 0.00 64 1020.3
20260502090647 60 356 0.0 1.0 0.00 0.00 0.00 70 1020.7
20260502070525 50 0.0 0.0 0.00 0.00 0.00 93 1021.1
20260502065508 50 0.0 0.0 0.00 0.00 0.00 95 1021.2
20260502064453 49 0.0 0.0 0.00 0.00 0.00 96 1021.2
20260502063425 49 0.0 1.0 0.00 0.00 0.00 97 1021.1
20260502062510 49 0.0 0.0 0.00 0.00 0.00 97 1021.0
20260502061446 48 0.0 0.0 0.00 0.00 0.00 97 1021.3
20260502060531 48 0.0 0.0 0.00 0.00 0.00 97 1021.3
20260502055427 47 0.0 0.0 0.00 0.00 0.00 98 1021.1
20260502054412 47 0.0 0.0 0.00 0.00 0.00 98 1021.1
20260502053329 46 0.0 0.0 0.00 0.00 0.00 97 1021.1
20260502052306 46 0.0 0.0 0.00 0.00 0.00 97 1021.1
20260502051312 45 0.0 0.0 0.00 0.00 0.00 97 1021.1
20260502050229 45 0.0 0.0 0.00 0.00 0.00 97 1021.1
20260502045313 45 0.0 0.0 0.00 0.00 0.00 97 1020.9
20260502044310 45 0.0 0.0 0.00 0.00 0.00 97 1021.0
20260502043335 45 0.0 0.0 0.00 0.00 0.00 97 1021.2
20260502042251 45 0.0 0.0 0.00 0.00 0.00 97 1021.0
20260502041315 45 0.0 0.0 0.00 0.00 0.00 97 1021.1
20260502040232 46 0.0 0.0 0.00 0.00 0.00 97 1021.0
20260502035316 46 0.0 0.0 0.00 0.00 0.00 97 1021.1
20260502034253 46 0.0 0.0 0.00 0.00 0.00 96 1021.1
20260502033317 47 0.0 0.0 0.00 0.00 0.00 96 1021.7
20260502032234 47 0.0 0.0 0.00 0.00 0.00 96 1021.3
20260502031318 47 0.0 0.0 0.00 0.00 0.00 96 1021.4
20260502030314 47 0.0 0.0 0.00 0.00 0.00 96 1021.4
20260502025319 47 0.0 0.0 0.00 0.00 0.00 96 1021.3
20260502024236 47 0.0 0.0 0.00 0.00 0.00 96 1021.3
20260502023204 48 0.0 0.0 0.00 0.00 0.00 95 1021.4
20260502022120 48 0.0 0.0 0.00 0.00 0.00 95 1021.3
20260502021204 48 0.0 0.0 0.00 0.00 0.00 95 1021.7
20260502020121 48 0.0 0.0 0.00 0.00 0.00 95 1021.7
20260502015205 49 0.0 0.0 0.00 0.00 0.00 95 1021.8
20260502014122 49 0.0 0.0 0.00 0.00 0.00 94 1021.7
20260502013206 49 0.0 0.0 0.00 0.00 0.00 94 1021.8
20260502012123 49 0.0 0.0 0.00 0.00 0.00 93 1021.8
20260502011207 50 0.0 0.0 0.00 0.00 0.00 93 1022.0
20260502010123 50 0.0 0.0 0.00 0.00 0.00 93 1022.0
20260502005207 51 0.0 0.0 0.00 0.00 0.00 92 1022.0
20260502004124 51 0.0 0.0 0.00 0.00 0.00 92 1022.2
20260502003229 52 0.0 0.0 0.00 0.00 0.00 92 1022.4
20260502002125 53 0.0 0.0 0.00 0.00 0.00 92 1022.5
20260502001229 53 0.0 0.0 0.00 0.00 0.00 92 1022.4
20260502000126 53 0.0 0.0 0.00 0.00 0.00 92 1022.7
20260501235210 53 0.0 0.0 0.00 0.00 0.00 91 1022.7
20260501234126 53 0.0 0.0 0.00 0.00 0.00 91 1022.8
20260501233211 53 0.0 0.0 0.00 0.00 0.00 91 1022.7
20260501232127 54 0.0 0.0 0.00 0.00 0.00 91 1022.6
20260501231212 54 0.0 0.0 0.00 0.00 0.00 91 1022.8
20260501230139 54 0.0 0.0 0.00 0.00 0.00 90 1022.7
20260501225128 55 0.0 0.0 0.00 0.00 0.00 88 1022.6
20260501224113 55 0.0 0.0 0.00 0.00 0.00 87 1022.7
20260501223050 57 0.0 0.0 0.00 0.00 0.00 86 1022.6
20260501222114 57 0.0 0.0 0.00 0.00 0.00 86 1022.6
20260501221031 58 0.0 0.0 0.00 0.00 0.00 85 1022.6
20260501220115 58 0.0 0.0 0.00 0.00 0.00 86 1022.6
20260501215031 58 0.0 0.0 0.00 0.00 0.00 86 1022.5
20260501214116 58 0.0 0.0 0.00 0.00 0.00 86 1022.5
20260501213032 58 0.0 0.0 0.00 0.00 0.00 85 1022.6
20260501212036 58 0.0 0.0 0.00 0.00 0.00 84 1022.4
20260501210933 59 0.0 0.0 0.00 0.00 0.00 84 1022.3
20260501210018 59 0.0 0.0 0.00 0.00 0.00 84 1022.5
20260501204934 59 0.0 0.0 0.00 0.00 0.00 83 1022.4
20260501204018 59 0.0 0.0 0.00 0.00 0.00 83 1022.6
20260501202935 59 0.0 0.0 0.00 0.00 0.00 83 1022.6
20260501202019 59 0.0 0.0 0.00 0.00 0.00 84 1022.6
20260501200935 59 0.0 0.0 0.00 0.00 0.00 84 1022.4
20260501200020 59 0.0 0.0 0.00 0.00 0.00 84 1022.5
20260501194936 59 0.0 1.0 0.00 0.00 0.00 83 1022.2
20260501193933 60 0.0 1.0 0.00 0.00 0.00 83 1022.1
20260501192857 60 0.0 1.0 0.00 0.00 0.00 82 1022.0
20260501191942 61 0.0 1.0 0.00 0.00 0.00 82 1022.1
20260501190838 61 0.0 1.0 0.00 0.00 0.00 82 1022.0
20260501185922 62 0.0 0.0 0.00 0.00 0.00 81 1021.9
20260501184839 62 0.0 1.0 0.00 0.00 0.00 80 1022.1
20260501183923 63 0.0 1.0 0.00 0.00 0.00 79 1021.8
20260501182840 63 147 0.0 1.0 0.00 0.00 0.00 78 1022.0
20260501181944 64 0.0 1.0 0.00 0.00 0.00 77 1021.9
20260501180901 65 0.0 1.0 0.00 0.00 0.00 76 1021.8
20260501175926 66 119 0.0 1.0 0.00 0.00 0.00 74 1021.7
20260501174841 67 140 1.0 1.0 0.00 0.00 0.00 68 1021.8
20260501173926 67 0.0 2.0 0.00 0.00 0.00 67 1021.7
20260501172846 67 0.0 1.0 0.00 0.00 0.00 68 1021.5
20260501171759 67 201 1.0 3.0 0.00 0.00 0.00 66 1021.5
20260501170742 68 250 1.0 2.0 0.00 0.00 0.00 66 1021.4
20260501165827 69 172 0.0 3.0 0.00 0.00 0.00 65 1021.7
20260501164743 69 7 1.0 6.0 0.00 0.00 0.00 65 1021.5
20260501163848 69 237 1.0 2.0 0.00 0.00 0.00 67 1021.5
20260501162744 69 272 2.0 3.0 0.00 0.00 0.00 67 1021.4
20260501161829 69 114 2.0 3.0 0.00 0.00 0.00 67 1021.8
20260501160746 71 319 1.0 2.0 0.00 0.00 0.00 66 1021.7
20260501155830 71 285 1.0 5.0 0.00 0.00 0.00 64 1021.7
20260501154746 72 118 1.0 2.0 0.00 0.00 0.00 63 1021.5
20260501153831 72 167 1.0 1.0 0.00 0.00 0.00 63 1021.7
20260501152747 72 205 1.0 3.0 0.00 0.00 0.00 63 1021.5
20260501151831 71 314 1.0 3.0 0.00 0.00 0.00 62 1021.9
20260501150748 72 294 2.0 5.0 0.00 0.00 0.00 62 1021.9
20260501145725 73 197 1.0 6.0 0.00 0.00 0.00 60 1022.0